Location: Azul
(36.7830°S, 59.8500°W)
Time: 04:25:24
(UTC-03:00)

ISS - Pass Details

Date: 30 April 2017
Orbit: 401 x 409 km, 51.6° (Epoch: 29 April)

Event Time Altitude Azimuth Distance (km) Brightness Sun altitude
Rises 19:27:34 0° 297° (WNW) 2,333 1.5 -15.1°
Reaches altitude 10° 19:29:42 10° 290° (WNW) 1,479 0.3 -15.5°
Maximum altitude 19:32:54 43° 216° (SW) 594 -2.8 -16.1°
Enters shadow 19:34:36 23° 156° (SSE) 939 -2.3 -16.5°
